DW7875 Weather Reports


time (UTC)temp
C
wind
direction
speed
KPH
gust
KPH
rain 1hr
cm
rain 24hr
cm
rain mn
cm
humidity
%
barometer
mb
20260510220058 20 234 3.2 8.0 0.00 0.00 0.00 54 1012.1
20260510214556 20 220 0.0 6.4 0.00 0.00 0.00 55 1011.7
20260510213100 21 217 0.0 3.2 0.00 0.00 0.00 55 1011.5
20260510211555 21 184 0.0 4.8 0.00 0.00 0.00 55 1011.5
20260510210054 22 212 1.6 8.0 0.00 0.00 0.00 51 1011.5
20260510204605 23 196 0.0 4.8 0.00 0.00 0.00 50 1011.3
20260510203053 24 199 0.0 4.8 0.00 0.00 0.00 49 1011.3
20260510201556 25 134 1.6 6.4 0.00 0.00 0.00 45 1011.4
20260510200054 25 141 1.6 4.8 0.00 0.00 0.00 49 1011.5
20260510194552 25 146 3.2 8.0 0.00 0.00 0.00 47 1012.0
20260510193051 25 174 1.6 4.8 0.00 0.00 0.00 46 1012.3
20260510191557 25 131 0.0 8.0 0.00 0.00 0.00 47 1012.4
20260510190049 25 129 1.6 6.4 0.00 0.00 0.00 47 1012.4
20260510184546 25 116 1.6 8.0 0.00 0.00 0.00 49 1012.5
20260510183046 23 175 0.0 4.8 0.00 0.00 0.00 53 1012.7
20260510181549 23 167 1.6 4.8 0.00 0.00 0.00 55 1012.7
20260510180044 22 168 0.0 3.2 0.00 0.00 0.00 56 1013.0
20260510174551 24 155 1.6 6.4 0.00 0.00 0.00 54 1013.0
20260510173041 23 156 1.6 6.4 0.00 0.00 0.00 56 1013.0
20260510171536 23 134 1.6 8.0 0.00 0.00 0.00 57 1013.0
20260510170035 22 107 1.6 4.8 0.00 0.00 0.00 58 1013.1
20260510164550 22 129 1.6 6.4 0.00 0.00 0.00 58 1013.2
20260510163032 22 193 1.6 6.4 0.00 0.00 0.00 58 1013.4
20260510161530 22 143 1.6 6.4 0.00 0.00 0.00 60 1013.5
20260510160030 22 102 1.6 4.8 0.00 0.00 0.00 59 1013.5
20260510154532 22 148 1.6 6.4 0.00 0.00 0.00 58 1013.5
20260510153036 21 61 1.6 4.8 0.00 0.00 0.00 58 1013.5
20260510151524 21 145 1.6 3.2 0.00 0.00 0.00 57 1013.4
20260510150022 22 145 1.6 4.8 0.00 0.00 0.00 57 1013.2
20260510144538 22 134 0.0 6.4 0.00 0.00 0.00 57 1013.1
20260510143018 22 146 0.0 4.8 0.00 0.00 0.00 58 1013.0
20260510141516 21 183 0.0 3.2 0.00 0.00 0.00 58 1012.9
20260510140011 20 150 0.0 3.2 0.00 0.00 0.00 60 1012.9
20260510134507 18 150 0.0 3.2 0.00 0.00 0.00 64 1012.9
20260510133002 17 358 0.0 3.2 0.00 0.00 0.00 66 1012.8
20260510131559 16 351 0.0 3.2 0.00 0.00 0.00 68 1013.0
20260510130056 16 351 0.0 1.6 0.00 0.00 0.00 69 1013.2
20260510124553 15 351 0.0 1.6 0.00 0.00 0.00 71 1013.2
20260510123049 15 351 0.0 3.2 0.00 0.00 0.00 74 1013.2
20260510121553 14 351 0.0 1.6 0.00 0.00 0.00 74 1013.0
20260510120045 14 350 0.0 3.2 0.00 0.00 0.00 74 1012.6
20260510114550 14 262 0.0 3.2 0.00 0.00 0.00 74 1012.3
20260510113043 13 261 0.0 1.6 0.00 0.00 0.00 74 1012.1
20260510111540 13 262 0.0 4.8 0.00 0.00 0.00 73 1011.9
20260510110040 13 257 0.0 6.4 0.00 0.00 0.00 73 1011.5
20260510104537 13 283 1.6 6.4 0.00 0.00 0.00 73 1011.4
20260510103041 13 20 0.0 0.0 0.00 0.00 0.00 71 1011.2
20260510101532 13 116 0.0 3.2 0.00 0.00 0.00 71 1011.0
20260510100034 13 99 0.0 1.6 0.00 0.00 0.00 70 1010.8
20260510094529 14 99 0.0 4.8 0.00 0.00 0.00 69 1010.8
20260510093027 14 313 0.0 4.8 0.00 0.00 0.00 69 1010.7
20260510091524 14 311 0.0 6.4 0.00 0.00 0.00 71 1010.5
20260510090022 13 243 0.0 4.8 0.00 0.00 0.00 73 1010.4
20260510084520 13 154 0.0 4.8 0.00 0.00 0.00 73 1010.2
20260510083027 13 150 0.0 3.2 0.00 0.00 0.00 73 1009.9
20260510081520 13 151 0.0 1.6 0.00 0.00 0.00 73 1009.9
20260510080015 13 151 0.0 1.6 0.00 0.00 0.00 73 1009.7
20260510074514 13 151 0.0 1.6 0.00 0.00 0.00 73 1009.5
20260510073012 13 151 0.0 1.6 0.00 0.00 0.00 73 1009.6
20260510071511 13 151 0.0 3.2 0.00 0.00 0.00 73 1009.4
20260510070022 14 149 0.0 1.6 0.00 0.00 0.00 72 1009.5
20260510064513 14 149 0.0 1.6 0.00 0.00 0.00 72 1009.3
20260510063011 14 209 0.0 3.2 0.00 0.00 0.00 72 1009.3
20260510061508 14 203 0.0 1.6 0.00 0.00 0.00 72 1009.4
20260510060008 14 203 0.0 0.0 0.00 0.00 0.00 72 1009.3
20260510054510 14 203 0.0 0.0 0.00 0.00 0.00 72 1009.5
20260510053005 14 203 0.0 0.0 0.00 0.00 0.00 72 1009.6
20260510051504 13 203 0.0 1.6 0.00 0.00 0.00 73 1009.6
20260510050004 13 203 0.0 0.0 0.00 0.00 0.00 73 1009.4
20260510044503 14 203 0.0 0.0 0.00 0.00 0.00 73 1009.4
20260510043000 14 203 0.0 0.0 0.00 0.00 0.00 73 1009.6
20260510041612 14 203 0.0 0.0 0.00 0.00 0.00 73 1009.6
20260510040058 15 203 0.0 0.0 0.00 0.00 0.00 72 1009.6
20260510034557 15 203 0.0 0.0 0.00 0.00 0.00 72 1009.4
20260510033057 15 203 0.0 0.0 0.00 0.00 0.00 72 1009.4
20260510031559 16 203 0.0 0.0 0.00 0.00 0.00 72 1009.2
20260510030058 16 203 0.0 0.0 0.00 0.00 0.00 73 1009.1
20260510024600 16 203 0.0 0.0 0.00 0.00 0.00 72 1009.1
20260510023054 16 203 0.0 1.6 0.00 0.00 0.00 71 1009.1
20260510021553 16 203 0.0 1.6 0.00 0.00 0.00 70 1009.0
20260510020054 16 203 0.0 1.6 0.00 0.00 0.00 68 1008.9
20260510014551 16 203 0.0 1.6 0.00 0.00 0.00 67 1008.8
20260510013103 16 203 0.0 1.6 0.00 0.00 0.00 67 1008.8
20260510011550 16 203 0.0 3.2 0.00 0.00 0.00 67 1008.6
20260510004557 16 203 0.0 3.2 0.00 0.00 0.00 67 1008.5
20260510003049 16 186 0.0 1.6 0.00 0.00 0.00 67 1008.5
20260510001547 16 185 0.0 4.8 0.00 0.00 0.00 68 1008.3
20260510000048 17 139 0.0 3.2 0.00 0.00 0.00 68 1008.2
20260509234600 17 73 0.0 3.2 0.00 0.00 0.00 67 1008.3
20260509233045 17 66 0.0 3.2 0.00 0.00 0.00 66 1008.1
20260509231543 18 64 1.6 4.8 0.00 0.00 0.00 65 1008.0
20260509230043 18 141 1.6 6.4 0.00 0.00 0.00 65 1007.9
20260509224542 18 141 1.6 4.8 0.00 0.00 0.00 63 1008.0
20260509223042 18 140 0.0 6.4 0.00 0.00 0.00 63 1008.0
20260509221601 19 147 0.0 4.8 0.00 0.00 0.00 62 1008.1